Network for Lightning and Thunderstorms in Real Time - Real time lightning map
Regions/Countries: current only
List of Stations for "-" sorted ascending by Country
(Country = Country in that the station is located (assigned by the user))
StationCityCommentCountryRegionsStatusLast signalTotalValidInvolvedUsedClosestFarthest
2353WhyallaMostly relying on e field ante...Australia / South AustraliaJapan 1Running2024-02-25 15:027637311292963 km4495 km
2438Athelstone (IADELA729)2 x 200mm Ferrite, 200mm E-fie...Australia / South AustraliaOceania 1Running2024-02-25 15:03913873513381621692 km6451 km
2667Para Hills WestBack To Testing StageAustralia / South AustraliaOceania 1Idle2024-02-25 11:00000024000 km0 km
2953StrathalbynSHR/Hallett/CFS SBYN-02Australia / South AustraliaOceania 1Comm. Err2024-02-25 02:51000024000 km0 km
2976AdelaideAustralia / South AustraliaOceania 1Running2024-02-25 15:021181800177761685 km4753 km
972KingstonTrialing AntennasAustralia / TasmaniaOceania 1Offline2023-08-08 10:27000024000 km0 km
1833KingstonLoops N-S and E-WAustralia / TasmaniaOceania 1Running2024-02-25 15:032889223124155812409 km5977 km
1833KingstonLoops N-S and E-WAustralia / TasmaniaSouth America 1Running2024-02-25 15:02289972321819170 km12027 km
1833KingstonLoops N-S and E-WAustralia / TasmaniaAfrica 1Running2024-02-25 15:022900123220330 km10987 km
2048StowportBlue 19.4, 2x 200mm ferrite, 1...Australia / TasmaniaOceania 1Running2024-02-25 15:031138211358174192225 km5446 km
2050Sandy BayU of Tas Environmental Change ...Australia / TasmaniaOceania 1Running2024-02-25 15:0312701109453001782401 km5975 km
2050Sandy BayU of Tas Environmental Change ...Australia / TasmaniaSouth America 1Running2024-02-25 15:02126881094111100 km12138 km
2050Sandy BayU of Tas Environmental Change ...Australia / TasmaniaAfrica 1Running2024-02-25 15:021268810941210 km11100 km
2064OrfordAustralia / TasmaniaOceania 1Idle2022-10-30 00:00000024000 km0 km
2121CradocLoop AntennaAustralia / TasmaniaOceania 1Running2024-02-25 15:0314702105852901882431 km5977 km
849Corryong, VicAustralia / VictoriaOceania 1Running2024-02-25 15:0320171371146951682 km4921 km
919AcheronOnlineAustralia / VictoriaOceania 1Running2024-02-25 15:0313138110791911351805 km5342 km
1323SilvanAntenna approx 4m above groundAustralia / VictoriaOceania 1Running2024-02-25 15:006899306775451992 km7136 km
1613PortarlingtonSystem blue. 100mm E-fieldAustralia / VictoriaOceania 1Idle2024-02-25 12:015440654 km3672 km
1679BallaratE-field built-in, and now grou...Australia / VictoriaEurope 1Idle2024-02-23 14:21000024000 km0 km
1679BallaratE-field built-in, and now grou...Australia / VictoriaOceania 1Idle2024-02-23 14:21000024000 km0 km
1679BallaratE-field built-in, and now grou...Australia / VictoriaSouth America 1Idle2024-02-23 14:21000024000 km0 km
1679BallaratE-field built-in, and now grou...Australia / VictoriaAfrica 1Idle2024-02-23 14:21000024000 km0 km
1890StawellUnder test firmware 19.3Australia / VictoriaOceania 1Offline2022-11-06 12:58000024000 km0 km
2066MordiallocAustralia / VictoriaOceania 1Running2023-12-07 23:44000024000 km0 km
2081DromanaNew setup, indoors for testingAustralia / VictoriaOceania 1Running2024-02-25 15:03853678110351934 km4819 km
2090EnsayAustralia / VictoriaOceania 1Running2024-02-25 15:036661891420 km2466 km
2090EnsayAustralia / VictoriaAsia 1Running2024-02-25 15:01669489000 km0 km
2090EnsayAustralia / VictoriaSouth America 1Running2024-02-25 15:01669489000 km0 km
2090EnsayAustralia / VictoriaAfrica 1Running2024-02-25 15:01669389000 km0 km
2090EnsayAustralia / VictoriaJapan 2Running2024-02-25 15:01669089220 km8190 km
2098Neerim EastAustralia / VictoriaOceania 1Running2024-02-25 15:0323694168363172491874 km7187 km
2098Neerim EastAustralia / VictoriaAsia 1Running2024-02-25 15:022363516808443208 km5854 km
2098Neerim EastAustralia / VictoriaSouth America 1Running2024-02-25 15:022363716810760 km11837 km
2098Neerim EastAustralia / VictoriaAfrica 1Running2024-02-25 15:022363716810110 km11987 km
2098Neerim EastAustralia / VictoriaJapan 2Running2024-02-25 15:022364116811715511 km7825 km
2118BlackburnSystem Blue 19.4 @ v9.4, H two...Australia / VictoriaOceania 1Running2024-02-25 15:0322621181703472691874 km7113 km
2120Keilor ParkSystem Blue. 2x 20cm ferrites....Australia / VictoriaEurope 1Bad GPS2023-11-05 22:35000024000 km0 km
2120Keilor ParkSystem Blue. 2x 20cm ferrites....Australia / VictoriaOceania 1Bad GPS2023-11-05 22:35000024000 km0 km
2120Keilor ParkSystem Blue. 2x 20cm ferrites....Australia / VictoriaSouth America 1Bad GPS2023-11-05 22:35000024000 km0 km
2120Keilor ParkSystem Blue. 2x 20cm ferrites....Australia / VictoriaAfrica 1Bad GPS2023-11-05 22:35000024000 km0 km
2136SeatonGippsland - Eastern VictoriaAustralia / VictoriaOceania 1Offline2023-10-31 00:35000024000 km0 km
2139MooroolbarkV9.5b1 Blue, quiet PSU, low im...Australia / VictoriaEurope 1Idle2024-02-22 15:16000024000 km0 km
2139MooroolbarkV9.5b1 Blue, quiet PSU, low im...Australia / VictoriaOceania 1Idle2024-02-22 15:16000024000 km0 km
2139MooroolbarkV9.5b1 Blue, quiet PSU, low im...Australia / VictoriaAfrica 1Idle2024-02-22 15:16000024000 km0 km
2167HeathmontAustralia / VictoriaOceania 1Offline2024-02-25 10:50000024000 km0 km
2167HeathmontAustralia / VictoriaSouth America 1Offline2024-02-25 10:50000024000 km0 km
2167HeathmontAustralia / VictoriaAfrica 1Offline2024-02-25 10:50000024000 km0 km
2233WoodendAustralia / VictoriaEurope 1Running2024-02-25 15:0224313421802411 km2643 km
2233WoodendAustralia / VictoriaOceania 1Running2024-02-25 15:02243134276331837 km4562 km
2233WoodendAustralia / VictoriaSouth America 1Running2024-02-25 15:012429340312399 km2499 km
2233WoodendAustralia / VictoriaAfrica 1Running2024-02-25 15:0124293401322417 km5217 km
2233WoodendAustralia / VictoriaEurope 2Running2024-02-25 15:0124293403022140 km19048 km
2233WoodendAustralia / VictoriaEurope 3Running2024-02-25 15:0224273383122140 km19048 km
2391HeathcoteV9.2 Blue, Leon Mow Radio Obse...Australia / VictoriaOceania 1Running2024-02-25 15:0315838141033021791829 km7031 km
2979StawellAustralia / VictoriaOceania 1Running2024-02-25 15:03239723302851531848 km5235 km
844RockinghamRebirth (temporary)Australia / Western AustraliaOceania 1Running2024-02-25 15:03269357675611110 km3709 km
844RockinghamRebirth (temporary)Australia / Western AustraliaIndia 1Running2024-02-25 15:022689577314792 km4847 km
973Willetton, PerthAustralia / Western AustraliaOceania 1Running2024-02-25 15:03992919103801080 km5826 km
1515BaldivisAustralia / Western AustraliaOceania 1Offline2023-04-16 03:36000024000 km0 km
2418Morley, PerthAustralia / Western AustraliaOceania 1Running2024-02-25 15:0210374207122181082 km5822 km
2418Morley, PerthAustralia / Western AustraliaIndia 1Running2024-02-25 15:0110379207526192868 km5659 km
2677The Vines, PerthH fieldAustralia / Western AustraliaEurope 1Running2024-02-25 15:0396197223210 km8903 km
2677The Vines, PerthH fieldAustralia / Western AustraliaOceania 1Running2024-02-25 15:0396207224168871050 km5825 km
2677The Vines, PerthH fieldAustralia / Western AustraliaAsia 1Running2024-02-25 15:02953471661292816 km5148 km
2677The Vines, PerthH fieldAustralia / Western AustraliaAfrica 1Running2024-02-25 15:0295367168000 km0 km
2677The Vines, PerthH fieldAustralia / Western AustraliaJapan 1Running2024-02-25 15:029536716812103002 km3737 km
247Wiener NeustadtAustriaEurope 1Running2024-02-25 15:0232373237342756 km1223 km
247Wiener NeustadtAustriaSouth America 1Running2024-02-25 15:02321932191212484 km9552 km
247Wiener NeustadtAustriaAfrica 1Running2024-02-25 15:0232193219300 km5557 km
255DoblAustriaEurope 1Running2024-02-25 15:01121210220 km1453 km
265DesselbrunnAustriaEurope 1Running2024-02-25 14:521313130622 km648 km
297Feistritz / DrauAustriaEurope 1Running2024-02-25 15:01151151485538 km1099 km
324GrazAustriaEurope 1Offline2023-05-03 20:34000024000 km0 km
404GuntramsdorfAustriaEurope 1Offline2022-07-23 12:41000024000 km0 km
468StockerauAustriaEurope 1Running2024-02-25 15:01121290504 km3200 km
708Ybbs an der DonauAustriaEurope 1Running2024-02-25 15:0231220819443442 km1695 km
708Ybbs an der DonauAustriaEurope 2Running2024-02-25 15:0131620520544442 km1674 km
708Ybbs an der DonauAustriaEurope 3Running2024-02-25 15:0131620520544442 km1674 km
730Steinbrunn SeeAustriaEurope 1Idle2024-02-25 14:059440541 km907 km
730Steinbrunn SeeAustriaAsia 1Idle2024-02-25 14:059440557 km904 km
730Steinbrunn SeeAustriaJapan 1Idle2024-02-25 14:059432407 km434 km
730Steinbrunn SeeAustriaEurope 2Idle2024-02-25 14:059440541 km907 km
730Steinbrunn SeeAustriaEurope 3Idle2024-02-25 14:059440541 km907 km
754DornbirnSystem RED - OE9PGVAustriaEurope 1Running2024-02-25 15:0346731731780577 km6355 km
754DornbirnSystem RED - OE9PGVAustriaEurope 2Running2024-02-25 15:0147732232272577 km6362 km
754DornbirnSystem RED - OE9PGVAustriaEurope 3Running2024-02-25 15:0147732232270577 km6362 km
759Hof bei SalzburgAustriaEurope 1Running2024-02-25 15:0244530830859467 km1703 km
759Hof bei SalzburgAustriaEurope 2Running2024-02-25 15:0144830930970265 km1704 km
759Hof bei SalzburgAustriaEurope 3Running2024-02-25 15:0144830930970265 km1704 km
824SieghartskirchenOE3MNSAustriaEurope 1Running2024-02-25 15:027759598461 km1701 km
824SieghartskirchenOE3MNSAustriaAfrica 1Running2024-02-25 15:017759312051 km2072 km
824SieghartskirchenOE3MNSAustriaEurope 2Running2024-02-25 15:0177595911399 km1701 km
824SieghartskirchenOE3MNSAustriaEurope 3Running2024-02-25 15:0177595911399 km1701 km
884StroheimAustriaEurope 1Running2024-02-25 14:469771414 km1338 km
884StroheimAustriaEurope 2Running2024-02-25 14:469772265 km1088 km
884StroheimAustriaEurope 3Running2024-02-25 14:469772265 km1088 km
885EbenseeRED - SKS 120N OE5LALAustriaEurope 1Running2024-02-25 15:0266493863469 km1650 km
885EbenseeRED - SKS 120N OE5LALAustriaAsia 1Running2024-02-25 15:02664933514295 km1286 km
885EbenseeRED - SKS 120N OE5LALAustriaSouth America 1Running2024-02-25 15:0167493802430 km9407 km
Select your menu language
češtinadanskdeutschελληνικάenglishespañolsuomeksifrançaismagyaritaliano日本語latviskinederlandsenorskмакедонскиpolskiрусскийсрпскиsvenskatürkукраїнський
If your language is not supported and if you want to adapt the menu language, then write an email to info ☺ blitzortung.org.